Lapse_Rate
1.7 3.1 1.7 2.7 6.3 6.5 6.5 6.5 6.5 6.5 6.5 6.6 7.0 6.7 6.5 6.6 6.5 6.5 6.4 4.1 2.8 2.5 3.0 3.1 3.3 3.8 4.2 4.5 4.5 4.4 4.5 4.0 4.0 4.0 4.0 4.0 4.1 4.2 4.7 4.9 4.6 4.7 4.7 4.5 4.3 4.3 4.2 4.0 3.6
3.0 4.4 4.7 3.9 6.5 6.5 6.5 6.5 6.5 6.5 6.4 7.1 7.1 7.1 6.7 6.5 7.7 7.8 6.1 4.3 3.6 3.4 2.8 3.1 3.3 3.6 4.0 4.2 4.3 4.4 4.6 4.4 4.2 4.2 4.2 4.0 4.0 4.2 4.3 4.7 4.6 4.6 4.6 4.6 4.5 4.3 4.0 3.8 3.8
3.1 4.7 4.3 6.5 6.5 6.5 6.5 6.5 6.5 6.1 6.5 6.7 6.6 6.8 7.0 6.6 6.9 7.4 6.4 5.7 4.4 3.6 3.0 3.3 3.3 3.4 3.8 4.0 4.1 4.2 4.4 4.5 4.5 4.5 4.4 4.5 4.2 4.2 4.2 4.4 4.7 4.7 4.7 4.7 4.5 4.3 3.9 3.9 3.9
4.1 3.4 3.4 6.5 6.5 6.5 6.5 6.5 6.4 6.5 5.9 6.0 6.7 6.5 6.9 7.3 7.3 7.2 7.5 5.5 3.7 3.3 2.9 3.5 3.7 3.6 3.7 3.9 4.0 4.1 4.1 4.1 4.1 4.2 4.3 4.5 4.4 4.2 4.0 4.1 4.4 4.6 4.7 4.5 4.3 4.0 3.8 3.7 3.7
4.0 3.4 6.5 6.5 6.5 6.5 6.5 6.5 6.0 6.5 6.4 6.8 6.0 6.6 6.9 6.7 7.6 7.0 6.8 5.5 3.6 3.3 3.3 3.6 3.9 3.9 3.7 3.7 3.7 3.8 3.9 4.0 3.9 4.1 4.0 4.0 4.1 4.1 4.1 4.0 4.0 4.1 4.2 4.1 4.0 3.9 3.9 3.9 3.9
4.5 2.5 6.5 6.5 6.5 6.5 6.5 6.2 6.5 6.5 6.7 6.9 6.8 6.7 6.5 8.0 7.7 6.7 6.6 5.0 4.2 3.9 3.6 3.9 3.9 3.8 3.8 3.5 3.5 3.6 3.8 4.0 4.0 4.1 4.2 4.1 4.2 4.2 4.2 4.1 4.1 4.1 4.1 4.1 4.1 4.2 4.2 4.0 4.0
5.8 6.5 6.5 6.5 6.5 6.5 6.5 4.8 6.3 6.4 6.4 6.7 7.0 6.5 6.3 6.9 6.8 6.3 5.9 5.0 4.0 4.4 3.7 3.2 3.4 3.2 3.6 3.0 2.5 3.1 3.6 4.0 4.3 4.3 4.4 4.5 4.7 4.7 4.7 4.6 4.5 4.4 4.4 4.5 4.5 4.7 4.6 4.5 4.5
4.5 6.9 6.5 6.5 6.5 6.5 6.4 5.6 6.3 6.4 6.4 7.6 5.6 6.5 6.5 7.3 6.9 6.4 5.5 5.0 4.4 4.1 3.9 3.4 3.4 3.4 2.7 2.7 2.4 3.4 4.3 4.7 5.0 5.1 5.4 5.5 5.4 5.3 5.3 4.9 4.7 4.7 4.7 4.7 4.8 5.1 5.1 5.0 5.4
5.6 6.5 6.5 6.5 6.5 6.5 5.2 6.5 6.0 6.0 6.9 7.2 6.4 6.3 7.1 7.9 7.0 6.2 5.2 5.2 5.2 5.0 4.4 4.1 4.4 4.2 3.9 3.5 3.5 4.3 5.1 5.1 5.3 5.7 6.1 6.1 5.6 6.0 5.5 5.0 4.8 5.0 5.4 5.7 5.8 5.7 5.4 5.6 6.1
6.0 6.5 6.5 6.5 6.5 6.5 6.0 5.4 6.2 6.3 6.4 6.4 6.1 7.0 7.3 6.6 6.3 5.9 5.5 5.8 5.6 5.1 5.1 4.4 4.8 4.7 4.8 5.4 4.5 4.9 5.2 5.1 4.6 5.1 5.4 6.2 6.6 6.1 5.6 5.5 5.8 5.9 6.5 6.9 6.5 6.5 6.8 6.1 4.4
5.4 6.5 6.5 6.2 6.0 5.8 5.7 5.9 5.6 6.4 6.5 6.7 6.7 7.0 7.1 6.8 6.3 5.5 6.0 5.9 5.3 5.5 5.2 4.8 4.8 5.4 5.8 6.1 5.9 6.1 5.2 4.2 4.0 4.3 4.7 5.1 5.3 5.4 5.6 5.5 5.7 5.4 6.6 6.7 7.1 7.1 6.6 4.2 3.9
6.5 5.9 6.1 5.6 5.2 5.4 6.5 4.7 6.6 6.6 6.7 6.7 6.5 6.6 7.3 6.1 5.7 5.9 6.4 5.5 5.2 4.8 4.0 4.3 4.5 4.6 5.3 5.2 5.3 4.2 4.0 3.4 3.6 4.4 4.8 4.5 4.0 4.1 4.8 5.5 6.7 6.8 6.2 5.9 6.2 5.7 4.4 3.9 4.1
6.5 6.5 6.0 6.0 5.8 4.9 4.4 6.2 6.3 6.8 5.5 6.1 5.8 7.2 6.7 6.3 7.0 5.5 4.6 4.5 4.3 4.0 3.8 3.5 3.2 2.7 2.9 3.4 3.5 3.4 3.4 3.7 4.1 4.0 4.2 3.7 3.9 3.8 4.5 4.2 4.6 4.7 5.6 5.5 5.3 5.7 5.5 4.9 5.0
5.7 6.1 6.0 5.8 5.6 4.9 6.4 6.6 6.1 6.9 3.7 5.0 6.1 5.8 6.6 6.6 6.0 5.5 4.8 4.3 3.7 3.4 3.2 2.7 1.9 2.2 2.5 2.2 3.0 3.4 4.0 3.9 3.4 2.9 3.2 3.7 3.6 3.3 3.2 3.2 3.4 4.2 5.2 4.8 5.4 5.3 5.4 5.7 5.0
6.1 6.5 6.5 6.3 5.3 6.2 5.6 6.5 6.5 6.7 5.9 6.1 6.0 5.7 6.4 6.7 6.1 5.7 4.8 3.7 3.1 2.4 2.3 1.6 1.5 2.6 2.6 2.8 3.8 4.0 4.5 3.5 2.6 2.7 2.8 3.1 3.3 2.6 2.0 2.5 2.4 2.7 4.7 4.7 5.4 5.0 5.9 5.6 5.5
6.5 6.5 6.5 6.5 6.5 5.7 5.6 6.5 6.5 6.3 6.9 6.8 5.5 5.5 6.0 6.0 4.5 4.1 3.7 2.8 2.4 1.4 1.1 2.3 3.9 3.6 3.8 2.9 3.5 3.9 4.0 2.9 1.8 2.1 2.9 3.0 2.9 3.3 2.7 1.5 1.0 2.8 3.9 3.7 4.2 4.3 4.2 4.4 4.5
6.5 6.5 6.5 6.5 6.4 6.5 6.5 6.5 6.5 6.5 6.7 6.2 5.4 5.2 6.6 5.7 5.2 3.9 2.9 2.3 2.1 2.3 2.5 3.4 3.2 2.7 3.0 3.7 4.4 3.8 3.0 2.0 1.1 1.4 2.0 2.4 2.4 3.3 2.9 1.5 1.4 2.7 2.3 1.9 3.6 3.1 3.2 3.5 4.0
6.5 6.5 6.5 6.5 6.5 6.5 6.5 6.5 6.5 6.8 6.6 6.5 5.7 6.0 6.5 6.0 6.3 5.3 3.5 2.3 1.7 1.9 2.5 2.2 2.3 2.6 2.5 2.7 2.3 2.5 1.8 0.3 1.7 0.9 1.5 2.0 2.2 2.4 2.3 1.4 1.8 2.5 0.6 0.7 1.5 1.9 1.3 2.7 3.4
6.5 6.5 6.5 6.5 6.5 6.5 6.5 6.5 6.5 6.4 6.2 6.2 6.7 6.4 6.5 6.6 6.5 4.8 3.7 3.9 3.2 2.5 2.7 2.8 2.3 1.7 3.1 3.2 2.7 2.1 1.3 0.6 0.3 0.4 1.4 1.9 1.8 2.2 1.8 0.2 1.0 1.9 1.1 0.9 1.8 2.3 2.6 2.6 1.9
6.5 6.5 6.5 6.5 6.5 6.5 6.5 6.5 6.5 6.5 6.4 6.4 6.6 6.7 6.7 7.2 7.1 5.9 4.5 4.5 3.9 2.0 2.8 2.5 2.2 1.9 1.7 2.0 1.7 1.3 2.0 1.9 1.7 1.0 1.0 1.7 2.3 1.9 1.4 0.2 -0.0 0.6 0.5 0.9 0.4 0.3 1.4 1.0 0.9
6.5 6.5 6.5 6.5 6.5 6.5 6.5 6.5 6.5 6.5 6.4 6.5 6.7 7.2 7.5 7.5 7.5 5.9 5.4 5.0 3.3 2.6 2.3 2.2 1.9 1.7 2.6 2.1 1.7 2.1 2.5 1.6 1.3 0.7 0.5 1.4 1.9 1.4 1.4 -0.2 -0.2 -0.5 0.1 0.4 0.4 0.6 1.2 0.6 1.0
6.5 6.5 6.5 6.5 6.5 6.5 6.5 6.5 6.5 6.5 6.5 6.5 6.7 6.7 6.7 6.9 7.3 6.7 6.2 5.8 4.2 3.0 2.8 2.3 2.3 2.1 2.5 2.2 2.1 2.5 2.7 1.3 1.4 0.0 0.5 0.3 1.2 0.7 0.8 0.0 0.2 0.0 0.1 0.2 0.7 0.7 -0.4 0.9 0.2
6.5 6.5 6.5 6.5 6.5 6.5 6.5 6.5 6.5 6.5 6.5 6.5 6.4 6.7 6.7 6.9 7.1 6.7 5.9 5.7 5.6 4.4 3.1 2.9 3.1 3.2 2.6 1.7 1.8 1.1 0.4 0.4 -0.7 -0.9 -0.8 0.0 0.5 1.2 0.7 0.9 1.0 0.5 0.6 -0.3 -0.5 -0.1 0.0 -0.6 0.2
6.5 6.5 6.5 6.5 6.5 6.5 6.5 6.5 6.5 6.5 6.5 6.5 6.5 6.7 6.8 6.9 6.7 6.3 6.1 6.2 6.3 5.2 4.0 4.4 4.4 3.8 2.2 2.4 1.4 0.4 0.2 -0.6 -0.7 -1.3 -1.4 -0.4 -0.3 -0.5 0.4 0.9 1.3 1.2 0.3 -0.2 -0.1 -0.5 -0.9 -0.8 -0.6
6.5 6.5 6.5 6.5 6.5 6.5 6.5 6.5 6.5 6.5 6.5 6.5 6.5 6.4 6.7 6.4 6.2 6.6 6.4 6.6 6.2 5.6 5.1 5.3 5.0 4.2 3.5 2.9 1.4 0.6 0.3 0.0 -0.7 -1.0 -1.4 -1.2 -1.3 -1.5 -0.6 0.9 0.8 0.4 1.2 1.3 1.2 -0.1 -0.6 -0.7 -0.9
6.5 6.5 6.5 6.5 6.5 6.5 6.5 6.5 6.5 6.5 6.3 6.3 6.5 6.5 6.5 6.8 6.5 6.4 6.2 6.2 6.2 5.6 5.5 5.8 5.3 5.0 4.3 3.0 2.3 1.5 1.0 0.2 -0.4 -0.8 -1.2 -1.0 -1.2 -1.0 0.3 0.4 0.9 1.2 1.4 1.4 1.2 -0.1 -1.0 -0.7 -1.2
6.5 6.5 6.5 6.5 6.5 6.5 6.5 6.5 6.5 6.5 6.5 6.4 6.1 6.4 6.2 6.5 6.5 6.3 6.1 5.9 5.4 5.0 5.2 5.4 5.5 5.6 4.9 3.7 3.3 2.0 1.1 0.4 0.2 0.1 0.2 -0.4 -0.3 0.4 0.5 1.1 0.6 1.1 1.6 1.6 0.8 -1.0 -0.8 -0.8 -0.9
6.5 6.5 6.5 6.5 6.5 6.5 6.5 6.5 6.5 6.5 6.5 6.5 6.5 6.2 6.2 6.6 6.6 6.4 5.8 5.6 5.3 5.0 5.0 5.0 5.0 5.4 4.9 4.0 3.3 2.6 1.4 1.2 0.9 1.0 0.7 0.7 0.5 1.1 0.5 0.4 0.8 1.0 1.2 1.3 0.9 -0.6 0.0 -0.5 -0.7
6.5 6.5 6.5 6.5 6.5 6.5 6.5 6.5 6.5 6.5 6.5 6.5 6.5 6.1 6.1 6.2 6.3 6.0 6.0 5.6 4.8 4.9 5.0 5.2 5.0 5.3 4.6 4.1 3.4 2.7 2.2 2.3 2.2 2.4 1.8 0.9 0.7 1.0 0.5 0.7 0.8 0.9 0.8 1.3 0.0 -0.3 0.0 0.0 0.0
6.5 6.5 6.5 6.5 6.5 6.5 6.5 6.5 6.5 6.5 6.5 6.2 5.9 6.0 5.8 5.9 6.4 6.4 5.6 4.9 4.7 4.5 5.1 5.3 4.8 4.9 4.3 4.3 4.0 3.3 3.0 4.0 3.5 3.3 2.1 2.0 0.9 1.8 1.5 1.6 1.3 1.6 1.3 0.8 0.1 0.5 0.3 0.1 0.2
Wind_Speed
7 11 1 3 3 2 7 9 3 8 7 14 17 20 16 12 3 6 8 19 19 14 20 21 21 21 21 20 20 19 17 19 18 18 17 17 16 16 16 16 16 16 15 15 14 13 12 12 11
4 5 2 3 2 3 6 10 3 15 17 24 21 18 16 20 19 19 10 17 20 18 20 20 21 21 20 19 19 18 17 17 17 17 16 16 16 15 15 15 15 15 14 13 12 12 11 10 9
2 3 2 4 4 9 4 5 9 8 10 9 7 12 8 5 10 7 19 20 23 17 20 19 22 23 21 20 19 18 17 16 16 16 16 15 15 14 14 13 13 12 12 11 10 10 9 8 8
1 3 4 1 11 14 18 2 10 12 12 14 15 12 6 8 3 10 20 21 19 15 19 20 20 21 21 20 19 18 18 17 16 15 14 14 13 12 12 12 12 10 10 9 8 8 7 6 6
1 2 3 4 12 16 13 13 10 8 8 14 10 7 7 5 16 16 19 18 20 13 18 18 20 20 20 19 18 18 17 16 15 14 14 13 12 11 11 11 10 9 8 7 6 5 4 5 6
2 3 1 7 16 18 9 11 17 13 18 15 14 10 3 10 13 12 16 18 20 16 17 18 19 19 18 19 18 17 15 14 13 13 12 12 12 11 10 9 9 8 7 5 4 4 6 7 8
6 1 7 9 15 18 4 9 10 11 11 7 17 7 7 10 9 12 12 14 16 22 17 15 14 18 16 18 16 15 14 12 10 10 10 10 10 10 9 8 8 7 6 5 5 6 6 6 7
3 4 7 8 15 19 6 8 14 16 6 17 14 7 9 11 12 14 13 13 12 13 16 14 15 14 14 10 13 13 12 11 8 6 6 7 6 8 8 7 6 5 4 4 5 6 7 8 8
5 4 8 14 13 16 11 6 7 9 17 7 7 11 23 18 19 14 13 8 8 9 11 14 13 14 14 12 10 13 11 9 8 6 3 1 5 4 8 6 6 3 3 3 3 4 6 6 11
6 5 15 12 15 4 5 9 12 7 14 11 16 23 23 21 18 14 14 9 7 7 8 7 12 12 16 10 10 6 9 11 14 17 16 14 14 11 6 5 6 3 2 2 4 5 9 15 17
7 13 11 17 22 10 5 1 4 12 10 27 30 27 23 21 16 14 13 14 13 7 6 7 5 6 5 9 9 10 11 12 16 18 15 13 11 12 12 8 3 4 6 5 6 9 12 15 16
10 13 16 17 20 5 3 5 10 16 7 5 28 25 23 20 16 15 14 11 15 13 10 7 9 9 14 16 12 13 11 11 12 14 11 12 10 10 8 6 8 11 12 13 12 12 16 16 17
13 18 17 19 18 7 8 6 8 15 19 14 10 17 19 14 15 16 17 15 14 12 9 8 9 8 9 13 11 11 9 12 14 15 15 14 10 7 8 12 14 14 17 13 10 8 12 14 15
11 18 18 18 15 6 11 6 6 7 24 24 6 8 18 18 17 17 17 14 13 10 8 8 8 9 12 8 10 8 12 14 14 15 16 17 15 11 10 10 11 14 16 13 10 6 8 10 13
17 12 14 15 7 9 16 4 5 15 22 24 16 9 15 17 13 12 14 15 13 10 10 9 8 9 8 8 10 8 8 14 13 14 16 16 18 16 13 10 9 9 14 16 13 13 11 7 11
8 9 14 15 7 8 8 6 10 17 21 15 16 9 13 13 12 11 11 11 10 10 11 8 8 8 7 7 6 9 13 14 13 16 13 15 16 18 14 9 8 11 16 14 7 4 4 5 5
6 7 6 11 8 5 5 14 12 11 15 14 11 9 13 15 14 11 9 8 7 7 8 9 8 7 7 8 10 12 13 13 13 16 12 16 15 16 15 11 12 15 13 9 5 6 5 4 4
6 8 7 9 7 8 6 10 18 16 20 19 14 12 13 13 14 13 11 9 8 8 7 7 8 7 8 6 9 9 10 13 11 13 14 17 15 12 13 15 16 16 8 6 5 5 4 3 2
8 7 8 7 9 11 12 18 20 17 14 17 14 14 14 13 13 11 9 9 8 7 8 4 7 9 4 4 4 4 4 3 3 11 15 14 17 18 13 11 13 14 6 5 6 3 7 7 3
16 9 10 8 10 8 10 16 22 22 21 21 21 18 17 13 13 13 12 10 11 8 7 7 6 6 7 4 3 4 4 3 4 8 12 14 13 15 13 12 8 10 5 7 6 6 1 4 6
17 14 15 13 10 10 13 8 11 12 15 18 18 18 16 19 18 17 17 15 14 12 9 8 7 7 6 6 6 6 7 5 3 4 3 9 13 14 11 16 13 11 8 5 6 5 5 4 4
18 12 12 11 9 9 9 6 12 17 14 21 20 20 20 20 20 18 18 16 14 13 10 10 8 7 6 7 7 10 6 5 2 5 3 8 14 14 13 18 14 12 10 6 6 8 5 4 5
13 8 13 13 7 7 13 5 7 18 17 22 22 20 19 20 20 21 19 16 14 14 13 11 10 8 10 7 7 5 6 5 5 4 7 5 9 14 16 18 14 12 7 11 9 7 8 4 6
9 8 7 7 3 2 10 8 4 17 18 19 18 21 22 21 22 20 18 17 16 15 14 13 12 9 8 8 8 9 11 8 6 5 5 4 2 6 15 16 12 11 12 9 8 9 7 6 7
9 6 3 2 1 5 10 7 7 18 19 23 22 23 22 23 22 21 20 19 18 18 16 15 14 12 10 8 9 9 9 8 9 7 5 6 3 4 5 9 9 10 13 12 12 8 7 6 6
7 7 5 7 5 4 10 11 7 10 25 25 25 27 22 25 22 22 21 18 16 19 16 16 15 14 12 9 9 8 8 6 5 6 5 4 4 4 10 12 12 12 14 13 11 6 6 8 6
5 6 4 2 3 3 4 3 1 9 15 20 18 24 21 25 23 23 20 18 16 17 18 17 14 14 13 11 9 8 8 8 7 8 6 5 7 7 11 13 11 12 14 13 12 4 6 6 5
7 2 2 2 7 6 4 5 6 7 6 19 18 24 22 24 22 21 20 20 17 18 16 16 14 16 14 12 11 9 8 8 7 6 8 9 7 9 10 9 10 10 10 11 10 5 8 6 4
4 5 2 6 5 5 2 5 3 8 9 14 21 20 21 22 23 22 20 17 18 19 17 15 14 16 14 13 9 8 7 7 8 8 9 8 10 11 8 9 8 7 7 10 6 6 7 7 6
11 8 7 5 8 3 5 5 4 3 8 9 14 18 20 24 25 22 20 19 19 19 18 16 14 16 14 13 11 9 7 8 8 8 8 13 8 12 10 10 7 6 6 9 6 7 6 7 6
Wind_Direction
279 287 155 344 37 96 259 256 271 191 69 81 82 85 94 50 50 146 129 115 113 116 117 108 105 102 102 102 99 96 91 91 87 84 83 83 81 77 71 81 88 87 86 87 86 81 76 66 51
311 321 185 278 145 266 281 266 169 90 104 95 85 92 59 68 78 116 108 121 119 119 113 113 108 104 102 102 100 97 94 91 90 88 85 84 83 81 80 78 82 85 87 87 84 80 73 63 47
318 224 51 162 211 234 226 347 73 82 81 93 100 63 83 88 47 102 133 132 115 111 110 114 112 107 104 101 99 98 94 92 91 90 87 85 86 87 85 84 81 82 84 81 77 73 68 56 35
296 345 323 143 249 256 234 199 111 102 87 84 113 76 87 83 78 98 113 109 107 108 109 113 111 109 108 107 104 100 99 95 92 91 88 86 86 85 84 87 84 81 83 79 73 68 62 49 24
19 274 227 227 249 259 259 160 132 116 91 93 90 89 84 71 111 107 110 112 107 105 111 111 113 112 111 109 107 105 103 102 99 97 96 96 94 92 89 89 88 83 79 78 73 61 40 17 1
285 148 345 232 253 259 258 163 142 121 113 107 95 98 98 127 115 116 114 120 120 117 117 115 115 110 111 112 111 109 106 105 107 108 110 112 112 108 102 96 92 87 79 71 58 35 18 1 359
209 174 227 244 259 279 211 157 128 136 126 104 134 103 135 134 127 114 107 113 120 120 117 114 113 114 114 116 113 118 115 114 118 126 129 126 122 116 111 102 87 73 62 38 19 19 5 354 360
210 154 266 256 260 267 211 145 135 142 116 123 141 140 150 157 114 115 105 106 116 123 125 122 122 116 119 121 126 128 127 129 133 123 113 121 121 125 121 107 96 79 48 22 7 9 356 346 2
261 222 243 249 254 266 178 129 121 119 134 134 179 144 140 138 121 112 107 97 106 123 131 142 144 140 136 139 148 143 138 115 77 41 118 160 143 145 107 115 102 88 68 26 17 26 13 5 54
186 212 237 248 257 228 244 152 123 128 141 105 106 120 132 127 128 127 128 131 123 129 139 137 134 148 154 160 160 149 117 109 87 50 46 59 82 83 93 118 103 43 359 6 350 27 59 59 79
253 230 245 250 258 263 236 59 21 143 170 141 137 141 134 131 132 138 144 147 149 124 79 102 139 129 136 122 139 103 81 70 60 54 43 47 60 61 56 67 38 12 348 358 42 74 62 78 85
243 245 239 255 264 293 196 148 106 68 25 169 130 148 135 139 145 156 163 133 118 108 101 81 77 64 86 82 77 72 71 79 72 58 39 33 34 41 47 55 39 42 38 35 43 78 93 89 85
230 239 243 247 262 289 77 28 78 68 66 56 106 134 136 140 125 110 116 113 114 113 114 98 83 73 72 89 87 87 90 76 67 59 46 49 45 25 47 61 56 42 36 28 40 66 95 96 95
233 239 241 232 248 224 126 147 77 99 103 98 253 159 131 124 122 122 119 120 116 116 106 96 84 89 92 88 90 94 90 87 73 60 53 51 44 38 61 52 46 40 39 29 24 58 107 108 103
240 249 243 237 234 211 109 4 88 148 122 149 181 100 106 119 116 118 127 125 132 130 118 97 99 99 96 112 115 113 109 110 91 72 63 55 55 61 65 53 34 40 42 29 25 64 108 106 96
237 240 234 240 215 217 123 127 143 162 150 155 131 137 130 114 111 106 107 123 134 130 121 132 138 135 118 115 120 110 113 101 95 81 68 60 70 71 66 52 36 56 46 36 48 64 80 98 113
239 229 204 237 193 169 145 127 195 172 138 141 151 160 140 124 121 119 104 106 107 116 135 141 141 139 124 128 101 88 88 91 86 75 71 54 72 81 75 66 54 59 43 39 56 51 65 41 35
233 203 219 204 235 171 97 126 170 175 165 163 149 148 140 137 139 127 106 93 89 84 92 105 108 98 120 97 83 78 78 67 77 82 71 71 64 87 78 72 58 48 39 25 45 84 74 94 20
231 205 215 225 223 166 145 142 161 170 150 152 147 157 167 156 137 131 124 126 116 110 113 119 115 115 76 100 113 98 71 78 54 77 81 74 81 80 77 83 75 57 45 29 40 42 47 44 44
241 208 227 270 221 149 159 160 163 167 161 163 163 172 173 164 165 160 153 161 155 160 153 139 134 117 120 122 118 103 119 96 87 73 70 75 73 83 83 85 81 71 54 42 38 56 302 61 36
231 231 212 222 243 186 171 160 156 185 163 169 174 173 179 180 186 173 173 178 168 168 162 152 156 138 131 119 108 101 102 99 90 59 47 41 70 65 69 80 81 73 70 46 43 44 41 82 39
227 218 234 256 214 202 168 201 188 177 190 177 179 182 184 182 191 177 176 176 171 164 161 158 165 151 143 140 133 137 147 132 148 94 85 49 67 66 68 75 71 65 73 62 60 48 50 53 52
230 228 232 245 270 147 188 151 184 176 189 181 187 184 184 186 184 175 173 173 165 163 164 164 165 163 153 147 140 129 115 124 126 116 106 88 73 81 77 79 83 76 73 67 62 51 53 46 68
225 254 239 238 176 265 182 179 249 181 184 190 184 187 185 183 169 173 168 165 166 169 163 166 162 155 144 149 139 140 141 141 129 124 106 104 92 75 81 85 85 91 71 76 84 80 69 67 64
210 177 229 245 97 211 193 210 213 185 178 181 179 185 183 167 168 171 164 168 165 169 167 166 160 158 154 155 142 139 142 139 140 142 137 138 109 80 94 99 87 80 89 87 81 77 72 62 69
205 186 156 188 169 197 194 222 235 171 180 186 182 178 170 166 169 169 169 168 166 166 166 166 160 160 159 143 142 141 143 149 149 147 137 137 122 134 121 112 102 98 98 90 90 76 79 72 66
258 214 200 28 12 92 231 265 146 211 189 193 173 173 169 167 169 169 165 164 160 158 162 163 158 159 155 144 149 154 155 154 160 152 149 144 137 135 125 118 110 101 105 101 92 82 80 80 74
180 155 184 43 165 215 229 222 219 258 197 189 182 175 173 167 166 166 167 166 161 157 157 162 157 157 155 148 153 160 161 160 162 147 141 141 143 129 133 124 116 107 112 109 96 89 86 80 65
210 227 180 145 153 158 183 263 241 209 176 166 178 171 167 162 166 168 169 164 150 154 157 162 153 155 154 152 151 157 169 156 146 137 144 140 139 139 136 130 121 115 114 112 100 93 89 85 73
190 180 169 160 232 184 139 266 297 177 167 143 156 174 176 171 171 165 160 154 152 154 161 160 152 155 157 154 155 162 152 146 140 143 140 140 143 146 144 139 129 124 118 110 108 95 95 90 77